SB KEPS @ AMSAT $ORB12158.O Orbital Elements 12158.OSCAR
HR AMSAT ORBITAL ELEMENTS FOR OSCAR SATELLITES FROM WA5QGD FORT WORTH,TX June 6, 2012 Send SUBSCRIBE KEPS/UNSUBSCRIBE KEPS to m[email protected] only BID: ORB12158.O TO ALL RADIO AMATEURS BT
Satellite: AO-07 Catalog number: 07530 Epoch time: 12157.57352586 Element set: 397 Inclination: 101.4014 deg RA of node: 155.2322 deg Eccentricity: 0.0011823 Arg of perigee: 306.8506 deg Mean anomaly: 053.1483 deg Mean motion: 12.53589615 rev/day Decay rate: -2.7e-07 rev/day^2 Epoch rev: 71859 Checksum: 292
Satellite: FO-29 Catalog number: 24278 Epoch time: 12157.87163161 Element set: 0869 Inclination: 098.5859 deg RA of node: 260.0064 deg Eccentricity: 0.0351128 Arg of perigee: 058.7105 deg Mean anomaly: 304.7915 deg Mean motion: 13.52983010 rev/day Decay rate: -1.08e-06 rev/day^2 Epoch rev: 78042 Checksum: 316
Satellite: SO-33 Catalog number: 25509 Epoch time: 12158.64963953 Element set: 249 Inclination: 031.4318 deg RA of node: 033.3212 deg Eccentricity: 0.0352101 Arg of perigee: 111.1636 deg Mean anomaly: 252.6982 deg Mean motion: 14.28763501 rev/day Decay rate: 8.71e-06 rev/day^2 Epoch rev: 71114 Checksum: 280
Satellite: RS-22 Catalog number: 27939 Epoch time: 12158.67707234 Element set: 422 Inclination: 097.8130 deg RA of node: 000.0326 deg Eccentricity: 0.0012430 Arg of perigee: 301.6475 deg Mean anomaly: 058.3512 deg Mean motion: 14.64030922 rev/day Decay rate: 6.53e-06 rev/day^2 Epoch rev: 46434 Checksum: 270
Satellite: VO-52 Catalog number: 28650 Epoch time: 12158.59661408 Element set: 120 Inclination: 097.5968 deg RA of node: 190.0689 deg Eccentricity: 0.0027711 Arg of perigee: 076.6286 deg Mean anomaly: 283.8037 deg Mean motion: 14.82959320 rev/day Decay rate: 1.902e-05 rev/day^2 Epoch rev: 38340 Checksum: 330
Satellite: HO-68 Catalog number: 36122 Epoch time: 12158.72646082 Element set: 529 Inclination: 100.3615 deg RA of node: 218.2832 deg Eccentricity: 0.0007913 Arg of perigee: 131.7502 deg Mean anomaly: 228.4294 deg Mean motion: 13.16296022 rev/day Decay rate: -4.4e-07 rev/day^2 Epoch rev: 11901 Checksum: 272
/EX SB KEPS @ AMSAT $ORB12158.D Orbital Elements 12158.MICROS
HR AMSAT ORBITAL ELEMENTS FOR THE MICROSATS FROM WA5QGD FORT WORTH,TX June 6, 2012 Send SUBSCRIBE KEPS/UNSUBSCRIBE KEPS to m[email protected] only BID: ORB12158.D TO ALL RADIO AMATEURS BT
Satellite: UO-11 Catalog number: 14781 Epoch time: 12157.96889063 Element set: 0887 Inclination: 097.9541 deg RA of node: 217.5875 deg Eccentricity: 0.0010037 Arg of perigee: 071.8529 deg Mean anomaly: 288.3774 deg Mean motion: 14.80450218 rev/day Decay rate: 5.56e-06 rev/day^2 Epoch rev: 51827 Checksum: 345
Satellite: AO-16 Catalog number: 20439 Epoch time: 12158.53710690 Element set: 482 Inclination: 098.4294 deg RA of node: 102.2092 deg Eccentricity: 0.0010439 Arg of perigee: 186.3753 deg Mean anomaly: 173.7312 deg Mean motion: 14.32055249 rev/day Decay rate: 1.11e-06 rev/day^2 Epoch rev: 16847 Checksum: 287
Satellite: LO-19 Catalog number: 20442 Epoch time: 12157.93298916 Element set: 0420 Inclination: 098.3952 deg RA of node: 104.6681 deg Eccentricity: 0.0011828 Arg of perigee: 180.0080 deg Mean anomaly: 180.1102 deg Mean motion: 14.32273339 rev/day Decay rate: 9.4e-07 rev/day^2 Epoch rev: 16857 Checksum: 291
Satellite: AO-27 Catalog number: 22825 Epoch time: 12158.53648750 Element set: 119 Inclination: 098.5744 deg RA of node: 101.5174 deg Eccentricity: 0.0007584 Arg of perigee: 316.0838 deg Mean anomaly: 043.9749 deg Mean motion: 14.29461153 rev/day Decay rate: -4.6e-07 rev/day^2 Epoch rev: 97495 Checksum: 331
Satellite: IO-26 Catalog number: 22826 Epoch time: 12158.88931957 Element set: 870 Inclination: 098.5694 deg RA of node: 102.2382 deg Eccentricity: 0.0008429 Arg of perigee: 309.2797 deg Mean anomaly: 050.7636 deg Mean motion: 14.29736108 rev/day Decay rate: 1.00e-06 rev/day^2 Epoch rev: 97513 Checksum: 333
Satellite: GO-32 Catalog number: 25397 Epoch time: 12157.58712935 Element set: 0794 Inclination: 098.3611 deg RA of node: 136.8674 deg Eccentricity: 0.0001041 Arg of perigee: 010.6444 deg Mean anomaly: 349.4733 deg Mean motion: 14.23276370 rev/day Decay rate: -1.17e-06 rev/day^2 Epoch rev: 72237 Checksum: 304
Satellite: NO-44 Catalog number: 26931 Epoch time: 12158.40858630 Element set: 57 Inclination: 067.0511 deg RA of node: 148.1204 deg Eccentricity: 0.0007738 Arg of perigee: 265.2237 deg Mean anomaly: 094.7982 deg Mean motion: 14.29801196 rev/day Decay rate: 2.47e-06 rev/day^2 Epoch rev: 55770 Checksum: 311
Satellite: SO-50 Catalog number: 27607 Epoch time: 12158.77812160 Element set: 780 Inclination: 064.5585 deg RA of node: 326.5635 deg Eccentricity: 0.0083184 Arg of perigee: 250.7082 deg Mean anomaly: 108.4997 deg Mean motion: 14.72384959 rev/day Decay rate: 7.96e-06 rev/day^2 Epoch rev: 50843 Checksum: 344
Satellite: CO-55 Catalog number: 27844 Epoch time: 12157.58548423 Element set: 0390 Inclination: 098.7024 deg RA of node: 166.1322 deg Eccentricity: 0.0008804 Arg of perigee: 256.4896 deg Mean anomaly: 103.5313 deg Mean motion: 14.21023216 rev/day Decay rate: 1.78e-06 rev/day^2 Epoch rev: 46324 Checksum: 296
Satellite: CO-57 Catalog number: 27848 Epoch time: 12158.57303239 Element set: 341 Inclination: 098.7101 deg RA of node: 166.4338 deg Eccentricity: 0.0008599 Arg of perigee: 258.1412 deg Mean anomaly: 101.8802 deg Mean motion: 14.20775533 rev/day Decay rate: 1.74e-06 rev/day^2 Epoch rev: 46332 Checksum: 306
Satellite: AO-51 Catalog number: 28375 Epoch time: 12158.73390234 Element set: 284 Inclination: 098.1467 deg RA of node: 124.4969 deg Eccentricity: 0.0084694 Arg of perigee: 072.3886 deg Mean anomaly: 288.6528 deg Mean motion: 14.40948182 rev/day Decay rate: 1.85e-06 rev/day^2 Epoch rev: 41726 Checksum: 352
Satellite: CP3 Catalog number: 31129 Epoch time: 12157.92724919 Element set: 0184 Inclination: 097.8794 deg RA of node: 166.3655 deg Eccentricity: 0.0101907 Arg of perigee: 157.5697 deg Mean anomaly: 203.0042 deg Mean motion: 14.53064923 rev/day Decay rate: 8.55e-06 rev/day^2 Epoch rev: 27234 Checksum: 318
Satellite: CO-65 Catalog number: 32785 Epoch time: 12157.63920896 Element set: 0328 Inclination: 097.8013 deg RA of node: 218.9636 deg Eccentricity: 0.0015812 Arg of perigee: 099.1034 deg Mean anomaly: 261.1982 deg Mean motion: 14.82966092 rev/day Decay rate: 1.230e-05 rev/day^2 Epoch rev: 22205 Checksum: 316
Satellite: PRISM Catalog number: 33493 Epoch time: 12158.74114930 Element set: 761 Inclination: 098.1689 deg RA of node: 299.0557 deg Eccentricity: 0.0018215 Arg of perigee: 334.8719 deg Mean anomaly: 025.1626 deg Mean motion: 14.83847780 rev/day Decay rate: 2.321e-05 rev/day^2 Epoch rev: 18220 Checksum: 313
Satellite: SOHLA-1 Catalog number: 33496 Epoch time: 12158.48581241 Element set: 744 Inclination: 098.1037 deg RA of node: 270.2923 deg Eccentricity: 0.0007649 Arg of perigee: 077.6822 deg Mean anomaly: 282.5243 deg Mean motion: 14.69968311 rev/day Decay rate: 5.06e-06 rev/day^2 Epoch rev: 18067 Checksum: 319
Satellite: SO-67 Catalog number: 35870 Epoch time: 12158.74273696 Element set: 22 Inclination: 097.2334 deg RA of node: 194.8575 deg Eccentricity: 0.0002030 Arg of perigee: 156.9288 deg Mean anomaly: 313.1395 deg Mean motion: 15.23747233 rev/day Decay rate: 4.553e-05 rev/day^2 Epoch rev: 15102 Checksum: 309
Satellite: TISAT-1 Catalog number: 36799 Epoch time: 12158.67269121 Element set: 40 Inclination: 098.0632 deg RA of node: 234.9305 deg Eccentricity: 0.0014312 Arg of perigee: 200.8856 deg Mean anomaly: 159.1799 deg Mean motion: 14.81924012 rev/day Decay rate: 1.718e-05 rev/day^2 Epoch rev: 10293 Checksum: 298
Satellite: STUDSAT Catalog number: 36801 Epoch time: 12158.48787298 Element set: 408 Inclination: 098.0706 deg RA of node: 235.4073 deg Eccentricity: 0.0012116 Arg of perigee: 189.0476 deg Mean anomaly: 171.0541 deg Mean motion: 14.84209386 rev/day Decay rate: 4.617e-05 rev/day^2 Epoch rev: 10293 Checksum: 305
Satellite: FO-69 Catalog number: 37227 Epoch time: 12158.13500643 Element set: 0200 Inclination: 071.9688 deg RA of node: 336.3477 deg Eccentricity: 0.0017165 Arg of perigee: 335.8826 deg Mean anomaly: 024.1530 deg Mean motion: 14.77071144 rev/day Decay rate: 5.10e-06 rev/day^2 Epoch rev: 03446 Checksum: 288
Satellite: FO-70 Catalog number: 37380 Epoch time: 12158.13870081 Element set: 0202 Inclination: 071.9726 deg RA of node: 336.8852 deg Eccentricity: 0.0017865 Arg of perigee: 333.0252 deg Mean anomaly: 026.9991 deg Mean motion: 14.76822960 rev/day Decay rate: 4.95e-06 rev/day^2 Epoch rev: 03435 Checksum: 313
Satellite: ALMASAT-1 Catalog number: 38078 Epoch time: 12158.82356546 Element set: 274 Inclination: 069.4981 deg RA of node: 340.7323 deg Eccentricity: 0.0761625 Arg of perigee: 261.6474 deg Mean anomaly: 089.7685 deg Mean motion: 14.08908574 rev/day Decay rate: 1.3865e-04 rev/day^2 Epoch rev: 1609 Checksum: 348
Satellite: XATCOBEO Catalog number: 38082 Epoch time: 12158.80371341 Element set: 293 Inclination: 069.4951 deg RA of node: 339.1902 deg Eccentricity: 0.0741537 Arg of perigee: 260.8178 deg Mean anomaly: 090.8376 deg Mean motion: 14.15439439 rev/day Decay rate: 3.2932e-04 rev/day^2 Epoch rev: 1612 Checksum: 311
/EX SB KEPS @ AMSAT $ORB12158.W Orbital Elements 12158.WEATHER
HR AMSAT ORBITAL ELEMENTS FOR WEATHER SATELLITES FROM WA5QGD FORT WORTH,TX June 6, 2012 Send SUBSCRIBE KEPS/UNSUBSCRIBE KEPS to m[email protected] only BID: ORB12158.W TO ALL RADIO AMATEURS BT
Satellite: NOAA-10 Catalog number: 16969 Epoch time: 12157.66553747 Element set: 0947 Inclination: 098.5806 deg RA of node: 186.9239 deg Eccentricity: 0.0011395 Arg of perigee: 269.3428 deg Mean anomaly: 090.6432 deg Mean motion: 14.27555448 rev/day Decay rate: 1.84e-06 rev/day^2 Epoch rev: 33822 Checksum: 348
